EW0890 Weather Reports


time (UTC)temp
F
wind
direction
speed
knots
gust
knots
rain 1hr
in
rain 24hr
in
rain mn
in
humidity
%
barometer
mb
20260502223014 56 286 0.0 4.3 0.00 0.00 0.00 37 1017.7
20260502222505 57 323 1.7 4.3 0.00 0.00 0.00 35 1017.6
20260502222005 58 296 0.9 3.5 0.00 0.00 0.00 35 1017.6
20260502221519 57 254 0.0 4.3 0.00 0.00 0.00 36 1017.6
20260502221007 57 330 1.7 5.2 0.00 0.00 0.00 37 1017.6
20260502220509 58 268 2.6 8.7 0.00 0.00 0.00 37 1017.7
20260502220023 57 314 2.6 11.3 0.00 0.00 0.00 36 1017.7
20260502215505 57 273 4.3 11.3 0.00 0.00 0.00 35 1017.8
20260502215005 57 277 6.1 11.3 0.00 0.00 0.00 34 1017.8
20260502214509 57 328 0.9 11.3 0.00 0.00 0.00 37 1017.7
20260502214004 57 278 4.3 10.4 0.00 0.00 0.00 35 1017.7
20260502213506 58 282 4.3 10.4 0.00 0.00 0.00 37 1017.7
20260502213010 57 288 3.5 8.7 0.00 0.00 0.00 41 1017.6
20260502212506 57 277 6.1 11.3 0.00 0.00 0.00 34 1017.7
20260502212005 56 276 3.5 11.3 0.00 0.00 0.00 35 1017.8
20260502211514 57 266 2.6 11.3 0.00 0.00 0.00 37 1017.8
20260502211007 57 278 7.0 11.3 0.00 0.00 0.00 35 1017.8
20260502210507 57 237 2.6 5.2 0.00 0.00 0.00 39 1017.8
20260502210018 56 278 0.9 5.2 0.00 0.00 0.00 40 1017.9
20260502205507 56 6 1.7 7.0 0.00 0.00 0.00 40 1017.9
20260502205010 55 135 2.6 7.0 0.00 0.00 0.00 41 1017.9
20260502204526 55 299 1.7 5.2 0.00 0.00 0.00 38 1017.9
20260502204003 55 252 0.9 6.1 0.00 0.00 0.00 39 1017.9
20260502203503 56 292 1.7 6.1 0.00 0.00 0.00 38 1018.0
20260502203015 56 65 1.7 6.1 0.00 0.00 0.00 43 1018.0
20260502202503 55 29 2.6 6.1 0.00 0.00 0.00 39 1018.1
20260502202002 55 319 1.7 3.5 0.00 0.00 0.00 37 1018.2
20260502201514 56 307 0.9 3.5 0.00 0.00 0.00 40 1018.3
20260502201006 56 57 1.7 3.5 0.00 0.00 0.00 38 1018.3
20260502200507 56 310 1.7 5.2 0.00 0.00 0.00 40 1018.4
20260502200015 56 250 2.6 6.1 0.00 0.00 0.00 39 1018.4
20260502195512 56 42 2.6 6.1 0.00 0.00 0.00 39 1018.4
20260502195006 56 243 0.9 5.2 0.00 0.00 0.00 41 1018.5
20260502194521 56 321 1.7 5.2 0.00 0.00 0.00 41 1018.6
20260502194009 57 269 1.7 6.1 0.00 0.00 0.00 37 1018.6
20260502193508 56 58 0.9 6.1 0.00 0.00 0.00 37 1018.6
20260502193023 56 62 1.7 5.2 0.00 0.00 0.00 40 1018.6
20260502192503 55 338 0.9 3.5 0.00 0.00 0.00 39 1018.6
20260502192006 55 279 0.9 5.2 0.00 0.00 0.00 38 1018.7
20260502191519 55 65 0.9 6.1 0.00 0.00 0.00 38 1018.7
20260502191002 55 340 0.9 6.1 0.00 0.00 0.00 41 1018.7
20260502190506 55 79 3.5 6.1 0.00 0.00 0.00 42 1018.7
20260502190014 54 290 0.9 3.5 0.00 0.00 0.00 42 1018.8
20260502185508 54 267 0.9 4.3 0.00 0.00 0.00 44 1018.8
20260502185007 54 348 0.9 4.3 0.00 0.00 0.00 45 1018.8
20260502184527 54 49 0.9 4.3 0.00 0.00 0.00 39 1018.8
20260502184008 55 93 1.7 6.1 0.00 0.00 0.00 40 1018.8
20260502183508 56 53 1.7 6.1 0.00 0.00 0.00 41 1018.8
20260502183023 56 266 1.7 7.0 0.00 0.00 0.00 42 1018.9
20260502182507 55 72 1.7 7.0 0.00 0.00 0.00 42 1018.9
20260502182011 55 69 1.7 6.1 0.00 0.00 0.00 38 1018.9
20260502181525 56 13 1.7 6.1 0.00 0.00 0.00 41 1018.9
20260502181003 55 278 1.7 6.1 0.00 0.00 0.00 44 1018.9
20260502180504 54 82 0.9 7.0 0.00 0.00 0.00 40 1018.9
20260502164007 54 281 1.7 4.3 0.00 0.00 0.00 44 1019.8
20260502163507 53 65 0.9 4.3 0.00 0.00 0.00 43 1019.8
20260502163023 54 291 0.9 4.3 0.00 0.00 0.00 39 1019.8
20260502162509 54 316 1.7 7.0 0.00 0.00 0.00 47 1019.8
20260502162008 54 343 1.7 7.0 0.00 0.00 0.00 45 1019.8
20260502161522 53 288 2.6 7.0 0.00 0.00 0.00 44 1019.7
20260502161003 53 9 4.3 7.0 0.00 0.00 0.00 39 1019.8
20260502160504 53 43 1.7 10.4 0.00 0.00 0.00 44 1019.9
20260502152007 52 8 0.0 5.2 0.00 0.00 0.00 46 1019.8
20260502151523 51 183 0.9 5.2 0.00 0.00 0.00 44 1019.8
20260502151008 51 26 1.7 5.2 0.00 0.00 0.00 46 1019.8
20260502150507 50 38 2.6 6.1 0.00 0.00 0.00 44 1019.7
20260502130506 45 46 4.3 6.1 0.00 0.00 0.00 63 1019.4
20260502123509 43 70 1.7 3.5 0.00 0.00 0.00 75 1019.2
20260502123031 43 58 1.7 3.5 0.00 0.00 0.00 77 1019.2
20260502122503 42 53 2.6 3.5 0.00 0.00 0.00 78 1019.2
20260502121510 42 46 1.7 2.6 0.00 0.00 0.00 81 1019.2
20260502120507 41 44 1.7 2.6 0.00 0.00 0.00 84 1019.1
20260502115507 40 49 0.9 2.6 0.00 0.00 0.00 86 1018.9
20260502114519 40 53 1.7 2.6 0.00 0.00 0.00 87 1018.7
20260502114006 39 53 1.7 1.7 0.00 0.00 0.00 88 1018.7
20260502113506 39 50 1.7 1.7 0.00 0.00 0.00 86 1018.6
20260502113023 39 50 1.7 1.7 0.00 0.00 0.00 86 1018.6
20260502112506 39 67 1.7 1.7 0.00 0.00 0.00 86 1018.6
20260502112009 40 71 0.9 1.7 0.00 0.00 0.00 86 1018.5
20260502111532 39 74 1.7 1.7 0.00 0.00 0.00 85 1018.5
20260502110503 39 86 0.0 0.9 0.00 0.00 0.00 87 1018.5
20260502110015 39 86 0.0 0.9 0.00 0.00 0.00 86 1018.5
20260502105504 39 86 0.9 1.7 0.00 0.00 0.00 86 1018.5
20260502104519 39 99 0.9 0.9 0.00 0.00 0.00 87 1018.6
20260502103022 39 78 0.0 0.9 0.00 0.00 0.00 87 1018.6
20260502102010 39 78 0.0 0.9 0.00 0.00 0.00 87 1018.5
20260502101526 39 78 0.9 1.7 0.00 0.00 0.00 87 1018.5
20260502101013 39 78 0.9 1.7 0.00 0.00 0.00 87 1018.6
20260502100509 39 79 0.9 2.6 0.00 0.00 0.00 87 1018.6
20260502091524 39 73 0.9 3.5 0.00 0.01 0.00 88 1018.6
20260502091010 39 76 2.6 3.5 0.00 0.01 0.00 88 1018.4
20260502090509 39 91 2.6 4.3 0.00 0.01 0.00 87 1018.4
20260502071517 38 58 2.6 6.1 0.00 0.01 0.00 88 1018.3
20260502071007 38 62 4.3 6.1 0.00 0.01 0.00 88 1018.3
20260502070508 38 60 4.3 6.1 0.00 0.01 0.00 88 1018.3
20260502070023 39 62 3.5 5.2 0.00 0.01 0.00 88 1018.3
20260502065507 39 65 4.3 5.2 0.00 0.01 0.00 88 1018.3
20260502065003 39 63 4.3 5.2 0.00 0.01 0.00 88 1018.3
20260502064514 39 65 4.3 5.2 0.00 0.01 0.00 87 1018.3
20260502064007 39 60 3.5 4.3 0.00 0.01 0.00 86 1018.4
20260502063504 39 74 2.6 4.3 0.00 0.01 0.00 86 1018.4
20260502063017 39 74 3.5 5.2 0.00 0.01 0.00 86 1018.5
20260502062507 39 73 4.3 6.1 0.00 0.01 0.00 86 1018.5
20260502062004 39 64 4.3 7.8 0.00 0.01 0.00 86 1018.4
20260502061515 39 63 5.2 9.6 0.00 0.01 0.00 85 1018.3
20260502061004 40 63 6.1 9.6 0.00 0.01 0.00 85 1018.4
20260502060507 40 57 6.1 9.6 0.00 0.01 0.00 86 1018.5
20260502060022 40 58 6.1 9.6 0.00 0.01 0.00 85 1018.5
20260502055505 40 65 5.2 9.6 0.00 0.01 0.00 85 1018.5
20260502055006 40 62 7.0 10.4 0.00 0.01 0.00 85 1018.5
20260502054506 40 57 7.8 10.4 0.00 0.01 0.00 84 1018.6
20260502054003 41 57 7.8 10.4 0.00 0.01 0.00 84 1018.6
20260502053009 42 65 7.8 11.3 0.00 0.01 0.00 84 1018.5
20260502052504 42 60 7.8 11.3 0.00 0.01 0.00 84 1018.6
20260502052005 42 64 7.8 13.0 0.00 0.01 0.00 83 1018.5
20260502051510 43 55 8.7 13.0 0.00 0.01 0.00 83 1018.5
20260502051003 43 62 7.8 11.3 0.00 0.01 0.00 84 1018.4
20260502050505 43 62 7.8 10.4 0.00 0.01 0.00 84 1018.4
20260502050016 43 62 7.8 10.4 0.00 0.01 0.00 84 1018.4
20260502045506 44 63 6.1 8.7 0.00 0.01 0.01 85 1018.4
20260502045013 44 61 5.2 7.0 0.00 0.01 0.01 84 1018.4
20260502044521 44 67 4.3 6.1 0.00 0.01 0.01 85 1018.3
20260502044006 44 65 4.3 6.1 0.00 0.01 0.01 85 1018.2
20260502043511 44 77 3.5 5.2 0.00 0.01 0.01 85 1018.1
20260502043004 43 70 2.6 4.3 0.00 0.01 0.01 86 1018.1
20260502042504 43 67 3.5 4.3 0.00 0.01 0.01 86 1018.0
20260502041516 43 70 2.6 4.3 0.00 0.01 0.01 85 1018.2
20260502041004 43 67 3.5 4.3 0.00 0.01 0.01 85 1018.1
20260502040504 44 65 3.5 5.2 0.00 0.01 0.01 84 1018.1
20260502040013 44 70 3.5 5.2 0.00 0.03 0.01 83 1018.1
20260502035503 44 75 3.5 5.2 0.00 0.04 0.01 83 1018.0
20260502035007 44 69 3.5 6.1 0.00 0.06 0.01 83 1018.0
20260502034518 44 78 3.5 7.0 0.00 0.07 0.01 82 1018.0
20260502034006 44 86 4.3 7.0 0.00 0.07 0.01 82 1017.9
20260502033508 44 86 4.3 7.0 0.00 0.07 0.01 82 1018.0
20260502033021 45 86 5.2 6.1 0.00 0.07 0.01 81 1018.0
20260502032511 45 68 4.3 7.8 0.00 0.07 0.01 81 1018.1
20260502032012 45 67 4.3 8.7 0.00 0.07 0.01 80 1018.0
20260502031506 45 84 4.3 8.7 0.00 0.07 0.01 80 1018.0
20260502030014 45 64 5.2 7.0 0.00 0.07 0.01 80 1017.9
20260502025503 46 68 5.2 7.8 0.00 0.07 0.01 79 1017.9
20260502025003 46 68 5.2 8.7 0.00 0.07 0.01 79 1017.8
20260502024513 46 58 6.1 8.7 0.00 0.07 0.01 80 1017.7
20260502024006 46 65 6.1 8.7 0.00 0.07 0.01 79 1017.7
20260502023507 46 63 4.3 5.2 0.00 0.07 0.01 81 1017.6
20260502023029 46 63 3.5 4.3 0.00 0.08 0.01 80 1017.5
20260502022509 47 60 3.5 4.3 0.00 0.08 0.01 80 1017.4
20260502022010 47 53 1.7 3.5 0.00 0.08 0.01 81 1017.4
20260502021528 47 50 1.7 2.6 0.00 0.08 0.01 79 1017.3
20260502021007 47 49 1.7 3.5 0.00 0.08 0.01 78 1017.2
20260502020509 47 56 2.6 3.5 0.00 0.08 0.01 77 1017.1
20260502020008 47 50 2.6 3.5 0.00 0.08 0.01 75 1017.1
20260502015002 48 47 0.9 2.6 0.00 0.08 0.01 73 1017.1
20260502014508 48 47 0.9 4.3 0.00 0.08 0.01 70 1017.1
20260502013503 48 57 3.5 4.3 0.00 0.08 0.01 71 1016.9
20260502013014 48 39 0.0 0.0 0.00 0.08 0.01 71 1016.8
20260502012506 48 248 0.0 0.0 0.00 0.08 0.01 71 1016.8
20260502012007 48 248 0.0 0.0 0.00 0.08 0.01 68 1016.7
20260502011519 48 248 0.0 0.0 0.00 0.08 0.01 69 1016.5
20260502011009 48 248 0.0 0.0 0.00 0.08 0.01 68 1016.5
20260502010022 49 248 0.0 0.0 0.00 0.08 0.01 68 1016.2
20260502004526 50 245 0.0 0.0 0.00 0.08 0.01 63 1016.2
20260502003012 51 73 0.0 0.0 0.00 0.08 0.01 62 1016.0
20260502001516 51 84 0.0 0.0 0.00 0.08 0.01 60 1015.9
20260502000019 52 85 0.0 0.0 0.00 0.08 0.01 59 1015.9
20260501234522 52 339 0.0 0.0 0.00 0.08 0.01 59 1015.9
20260501233024 53 326 0.0 2.6 0.00 0.08 0.01 57 1016.0
20260501231514 54 34 0.0 2.6 0.00 0.08 0.01 56 1016.0